Location: Ravensburg
(47.7866°N, 9.6124°E)
Time: 20:43:43
(UTC+02:00)

ITAMSAT 1 - Pass Details

Date: 19 March 2026
Orbit: 782 x 793 km, 98.7° (Epoch: 14 April)

Event Time Altitude Azimuth Distance (km) Brightness Sun altitude
Exits shadow 21:41:36 58° 339° (NNW) 914 8.1 -30.3°
Drops below altitude 10° 21:45:46 10° 345° (NNW) 2,358 10.7 -30.8°
Sets 21:48:06 0° 346° (NNW) 3,293 11.6 -31.1°
